Time,TemperatureF,DewpointF,PressureIn,WindDirection,WindDirectionDegrees,WindSpeedMPH,WindSpeedGustMPH,Humidity,HourlyPrecipIn,Conditions,Clouds,dailyrainin,SoftwareType,DateUTC
2014-01-31 00:00:00,27.0,9.4,29.89,ENE,66,0.0,0.0,47,0.00,,,0.00,VWS V14.01,2014-01-31 08:00:00,
2014-01-31 00:05:00,27.0,8.9,29.89,ENE,73,0.0,0.0,46,0.00,,,0.00,VWS V14.01,2014-01-31 08:05:00,
2014-01-31 00:10:00,27.0,9.4,29.89,ENE,67,2.2,2.7,47,0.00,,,0.00,VWS V14.01,2014-01-31 08:10:00,
2014-01-31 00:15:00,27.0,9.4,29.89,ENE,68,0.0,2.7,47,0.00,,,0.00,VWS V14.01,2014-01-31 08:15:00,
2014-01-31 00:20:00,27.0,9.4,29.89,ENE,68,2.2,2.2,47,0.00,,,0.00,VWS V14.01,2014-01-31 08:20:00,
2014-01-31 00:25:00,26.8,9.7,29.89,East,81,3.1,3.6,48,0.00,,,0.00,VWS V14.01,2014-01-31 08:25:00,
2014-01-31 00:30:00,26.8,9.7,29.89,ENE,76,0.0,0.0,48,0.00,,,0.00,VWS V14.01,2014-01-31 08:30:00,
2014-01-31 00:35:00,26.8,10.2,29.89,ENE,70,2.7,3.6,49,0.00,,,0.00,VWS V14.01,2014-01-31 08:35:00,
2014-01-31 00:40:00,26.6,10.5,29.89,ENE,58,0.0,2.7,50,0.00,,,0.00,VWS V14.01,2014-01-31 08:40:00,
2014-01-31 00:45:00,26.6,10.9,29.89,ENE,78,2.2,2.2,51,0.00,,,0.00,VWS V14.01,2014-01-31 08:45:00,
2014-01-31 00:50:00,26.6,10.9,29.89,ENE,72,2.7,2.7,51,0.00,,,0.00,VWS V14.01,2014-01-31 08:50:00,
2014-01-31 00:55:00,26.4,10.8,29.89,ENE,68,0.0,0.0,51,0.00,,,0.00,VWS V14.01,2014-01-31 08:55:00,
2014-01-31 01:00:00,26.4,11.2,29.89,ENE,68,0.0,0.0,52,0.00,,,0.00,VWS V14.01,2014-01-31 09:00:00,
2014-01-31 01:05:00,26.4,11.2,29.89,ENE,68,0.0,0.0,52,0.00,,,0.00,VWS V14.01,2014-01-31 09:05:00,
2014-01-31 01:10:00,26.4,11.2,29.89,ENE,68,0.0,0.0,52,0.00,,,0.00,VWS V14.01,2014-01-31 09:10:00,
2014-01-31 01:15:00,26.2,11.0,29.89,East,89,0.0,0.0,52,0.00,,,0.00,VWS V14.01,2014-01-31 09:15:00,
2014-01-31 01:20:00,26.2,11.0,29.89,East,84,2.7,2.7,52,0.00,,,0.00,VWS V14.01,2014-01-31 09:20:00,
2014-01-31 01:25:00,26.2,11.0,29.89,East,82,0.0,0.0,52,0.00,,,0.00,VWS V14.01,2014-01-31 09:25:00,
2014-01-31 01:30:00,26.2,10.6,29.89,East,92,0.0,0.0,51,0.00,,,0.00,VWS V14.01,2014-01-31 09:30:00,
2014-01-31 01:35:00,26.2,10.6,29.89,ENE,72,2.2,2.7,51,0.00,,,0.00,VWS V14.01,2014-01-31 09:35:00,
2014-01-31 01:40:00,26.2,10.6,29.89,East,91,0.0,2.2,51,0.00,,,0.00,VWS V14.01,2014-01-31 09:40:00,
2014-01-31 01:45:00,26.2,10.6,29.89,ENE,71,2.7,2.7,51,0.00,,,0.00,VWS V14.01,2014-01-31 09:45:00,
2014-01-31 01:50:00,26.2,10.6,29.89,ENE,66,3.1,3.1,51,0.00,,,0.00,VWS V14.01,2014-01-31 09:50:00,
2014-01-31 01:55:00,26.2,10.6,29.89,ENE,75,2.7,3.6,51,0.00,,,0.00,VWS V14.01,2014-01-31 09:55:00,
2014-01-31 02:00:00,26.1,10.4,29.89,ENE,75,2.7,3.6,51,0.00,,,0.00,VWS V14.01,2014-01-31 10:00:00,
2014-01-31 02:05:00,26.1,10.4,29.89,ENE,73,3.6,3.6,51,0.00,,,0.00,VWS V14.01,2014-01-31 10:05:00,
2014-01-31 02:10:00,25.9,10.3,29.89,ENE,68,0.0,0.0,51,0.00,,,0.00,VWS V14.01,2014-01-31 10:10:00,
2014-01-31 02:15:00,25.9,10.3,29.89,ENE,70,0.0,2.2,51,0.00,,,0.00,VWS V14.01,2014-01-31 10:15:00,
2014-01-31 02:20:00,25.9,10.3,29.89,ENE,71,0.0,3.1,51,0.00,,,0.00,VWS V14.01,2014-01-31 10:20:00,
2014-01-31 02:25:00,25.9,10.3,29.89,ENE,69,2.2,2.2,51,0.00,,,0.00,VWS V14.01,2014-01-31 10:25:00,
2014-01-31 02:30:00,25.9,10.3,29.89,NE,51,2.2,3.1,51,0.00,,,0.00,VWS V14.01,2014-01-31 10:30:00,
2014-01-31 02:35:00,25.7,10.1,29.89,ENE,60,2.7,3.1,51,0.00,,,0.00,VWS V14.01,2014-01-31 10:35:00,
2014-01-31 02:40:00,25.7,10.1,29.89,ENE,59,2.2,2.2,51,0.00,,,0.00,VWS V14.01,2014-01-31 10:40:00,
2014-01-31 02:45:00,25.7,10.1,29.89,NE,35,3.6,3.6,51,0.00,,,0.00,VWS V14.01,2014-01-31 10:45:00,
2014-01-31 02:50:00,25.7,10.1,29.89,ENE,68,2.7,2.7,51,0.00,,,0.00,VWS V14.01,2014-01-31 10:50:00,
2014-01-31 02:55:00,25.5,9.9,29.89,ENE,73,2.2,2.2,51,0.00,,,0.00,VWS V14.01,2014-01-31 10:55:00,
2014-01-31 03:00:00,25.5,9.9,29.89,ENE,57,3.1,3.1,51,0.00,,,0.00,VWS V14.01,2014-01-31 11:00:00,
2014-01-31 03:05:00,25.5,9.9,29.89,East,80,3.1,3.1,51,0.00,,,0.00,VWS V14.01,2014-01-31 11:05:00,
2014-01-31 03:10:00,25.5,10.4,29.89,ENE,73,2.7,3.6,52,0.00,,,0.00,VWS V14.01,2014-01-31 11:10:00,
2014-01-31 03:15:00,25.3,10.6,29.89,ENE,76,2.7,3.1,53,0.00,,,0.00,VWS V14.01,2014-01-31 11:15:00,
2014-01-31 03:20:00,25.2,10.4,29.89,ENE,72,2.2,2.7,53,0.00,,,0.00,VWS V14.01,2014-01-31 11:20:00,
2014-01-31 03:25:00,25.2,10.9,29.89,NE,51,2.7,2.7,54,0.00,,,0.00,VWS V14.01,2014-01-31 11:25:00,
2014-01-31 03:30:00,25.2,10.9,29.89,ENE,62,0.0,0.0,54,0.00,,,0.00,VWS V14.01,2014-01-31 11:30:00,
2014-01-31 03:35:00,25.0,10.7,29.89,ENE,62,0.0,0.0,54,0.00,,,0.00,VWS V14.01,2014-01-31 11:35:00,
2014-01-31 03:40:00,24.6,10.8,29.89,ENE,64,2.2,2.2,55,0.00,,,0.00,VWS V14.01,2014-01-31 11:40:00,
2014-01-31 03:45:00,24.6,10.8,29.89,ENE,64,0.0,0.0,55,0.00,,,0.00,VWS V14.01,2014-01-31 11:45:00,
2014-01-31 03:50:00,24.4,10.6,29.89,ENE,65,0.0,3.1,55,0.00,,,0.00,VWS V14.01,2014-01-31 11:50:00,
2014-01-31 03:55:00,24.4,10.6,29.89,ENE,68,2.2,3.1,55,0.00,,,0.00,VWS V14.01,2014-01-31 11:55:00,
2014-01-31 04:00:00,24.4,10.2,29.89,ENE,67,0.0,3.1,54,0.00,,OVC130,0.00,VWS V14.01,2014-01-31 12:00:00,
2014-01-31 04:05:00,24.4,10.2,29.89,ENE,68,0.0,0.0,54,0.00,,OVC130,0.00,VWS V14.01,2014-01-31 12:05:00,
2014-01-31 04:10:00,24.4,10.2,29.89,ENE,67,0.0,0.0,54,0.00,,OVC130,0.00,VWS V14.01,2014-01-31 12:10:00,
2014-01-31 04:15:00,24.4,10.2,29.89,ENE,75,0.0,2.7,54,0.00,,OVC130,0.00,VWS V14.01,2014-01-31 12:15:00,
2014-01-31 04:20:00,24.4,10.2,29.89,ENE,73,2.7,2.7,54,0.00,,OVC130,0.00,VWS V14.01,2014-01-31 12:20:00,
2014-01-31 04:25:00,24.4,9.8,29.89,ENE,73,2.2,2.7,53,0.00,,OVC130,0.00,VWS V14.01,2014-01-31 12:25:00,
2014-01-31 04:30:00,24.3,9.6,29.89,ENE,74,0.0,0.0,53,0.00,,OVC130,0.00,VWS V14.01,2014-01-31 12:30:00,
2014-01-31 04:35:00,24.1,9.4,29.89,ENE,74,0.0,0.0,53,0.00,,OVC130,0.00,VWS V14.01,2014-01-31 12:35:00,
2014-01-31 04:40:00,23.9,9.3,29.89,ENE,74,0.0,0.0,53,0.00,,,0.00,VWS V14.01,2014-01-31 12:40:00,
2014-01-31 04:45:00,23.7,9.5,29.89,ENE,74,0.0,0.0,54,0.00,,,0.00,VWS V14.01,2014-01-31 12:45:00,
2014-01-31 04:50:00,23.7,9.5,29.89,ENE,74,0.0,0.0,54,0.00,,,0.00,VWS V14.01,2014-01-31 12:50:00,
2014-01-31 04:55:00,23.5,9.4,29.89,ENE,74,0.0,0.0,54,0.00,,,0.00,VWS V14.01,2014-01-31 12:55:00,
2014-01-31 05:00:00,23.5,9.4,29.92,ENE,74,0.0,0.0,54,0.00,,,0.00,VWS V14.01,2014-01-31 13:00:00,
2014-01-31 05:05:00,23.4,9.2,29.92,ENE,74,0.0,0.0,54,0.00,,,0.00,VWS V14.01,2014-01-31 13:05:00,
2014-01-31 05:10:00,23.0,8.9,29.95,ENE,74,0.0,0.0,54,0.00,,,0.00,VWS V14.01,2014-01-31 13:10:00,
2014-01-31 05:15:00,22.8,8.7,29.95,ENE,74,0.0,0.0,54,0.00,,,0.00,VWS V14.01,2014-01-31 13:15:00,
2014-01-31 05:20:00,22.6,8.9,29.95,ENE,74,0.0,0.0,55,0.00,,,0.00,VWS V14.01,2014-01-31 13:20:00,
2014-01-31 05:25:00,22.5,8.8,29.95,ENE,74,0.0,0.0,55,0.00,,,0.00,VWS V14.01,2014-01-31 13:25:00,
2014-01-31 05:30:00,22.3,8.6,29.95,ENE,74,0.0,0.0,55,0.00,,,0.00,VWS V14.01,2014-01-31 13:30:00,
2014-01-31 05:35:00,21.9,8.2,29.95,ENE,74,0.0,0.0,55,0.00,,,0.00,VWS V14.01,2014-01-31 13:35:00,
2014-01-31 05:40:00,21.6,7.9,29.95,ENE,74,0.0,0.0,55,0.00,,,0.00,VWS V14.01,2014-01-31 13:40:00,
2014-01-31 05:45:00,21.2,8.0,29.95,ENE,74,0.0,0.0,56,0.00,,,0.00,VWS V14.01,2014-01-31 13:45:00,
2014-01-31 05:50:00,21.0,7.8,29.95,ENE,74,0.0,0.0,56,0.00,,,0.00,VWS V14.01,2014-01-31 13:50:00,
2014-01-31 05:55:00,20.8,7.6,29.95,ENE,74,0.0,0.0,56,0.00,,,0.00,VWS V14.01,2014-01-31 13:55:00,
2014-01-31 06:00:00,20.5,7.3,29.95,ENE,74,0.0,0.0,56,0.00,,,0.00,VWS V14.01,2014-01-31 14:00:00,
2014-01-31 06:05:00,20.3,7.1,29.95,ENE,74,0.0,0.0,56,0.00,,,0.00,VWS V14.01,2014-01-31 14:05:00,
2014-01-31 06:10:00,20.1,6.9,29.95,ENE,74,0.0,0.0,56,0.00,,,0.00,VWS V14.01,2014-01-31 14:10:00,
2014-01-31 06:15:00,19.9,6.8,29.95,ENE,74,0.0,0.0,56,0.00,,,0.00,VWS V14.01,2014-01-31 14:15:00,
2014-01-31 06:20:00,19.6,6.8,29.95,ENE,74,0.0,0.0,57,0.00,,,0.00,VWS V14.01,2014-01-31 14:20:00,
2014-01-31 06:25:00,19.4,6.7,29.95,ENE,74,0.0,0.0,57,0.00,,,0.00,VWS V14.01,2014-01-31 14:25:00,
2014-01-31 06:30:00,19.2,6.5,29.95,ENE,74,0.0,0.0,57,0.00,,,0.00,VWS V14.01,2014-01-31 14:30:00,
2014-01-31 06:35:00,18.7,6.0,29.95,ENE,74,0.0,0.0,57,0.00,,,0.00,VWS V14.01,2014-01-31 14:35:00,
2014-01-31 06:40:00,18.1,5.5,29.95,ENE,74,0.0,0.0,57,0.00,,,0.00,VWS V14.01,2014-01-31 14:40:00,
2014-01-31 06:45:00,17.8,5.5,29.95,ENE,74,0.0,0.0,58,0.00,,,0.00,VWS V14.01,2014-01-31 14:45:00,
2014-01-31 06:50:00,17.8,5.5,29.95,ENE,74,0.0,0.0,58,0.00,,,0.00,VWS V14.01,2014-01-31 14:50:00,
2014-01-31 06:55:00,17.6,5.7,29.95,ENE,74,0.0,0.0,59,0.00,,,0.00,VWS V14.01,2014-01-31 14:55:00,
2014-01-31 07:00:00,17.8,5.9,29.95,ENE,74,0.0,0.0,59,0.00,,,0.00,VWS V14.01,2014-01-31 15:00:00,
2014-01-31 07:05:00,18.1,6.6,29.95,ENE,74,0.0,0.0,60,0.00,,,0.00,VWS V14.01,2014-01-31 15:05:00,
2014-01-31 07:10:00,18.1,6.6,29.95,ENE,74,0.0,0.0,60,0.00,,,0.00,VWS V14.01,2014-01-31 15:10:00,
2014-01-31 07:15:00,18.1,6.6,29.95,ENE,74,0.0,0.0,60,0.00,,,0.00,VWS V14.01,2014-01-31 15:15:00,
2014-01-31 07:20:00,17.8,6.3,29.95,ENE,74,0.0,0.0,60,0.00,,,0.00,VWS V14.01,2014-01-31 15:20:00,
2014-01-31 07:25:00,17.4,5.9,29.95,ENE,74,0.0,0.0,60,0.00,,,0.00,VWS V14.01,2014-01-31 15:25:00,
2014-01-31 07:30:00,17.6,6.4,29.95,ENE,74,0.0,0.0,61,0.00,,,0.00,VWS V14.01,2014-01-31 15:30:00,
2014-01-31 07:35:00,18.1,7.3,29.95,ENE,74,0.0,0.0,62,0.00,,,0.00,VWS V14.01,2014-01-31 15:35:00,
2014-01-31 07:40:00,18.5,7.7,29.95,ENE,74,0.0,0.0,62,0.00,,,0.00,VWS V14.01,2014-01-31 15:40:00,
2014-01-31 07:45:00,19.2,8.7,29.95,ENE,74,0.0,0.0,63,0.00,,,0.00,VWS V14.01,2014-01-31 15:45:00,
2014-01-31 07:50:00,20.1,9.9,29.95,ENE,74,0.0,0.0,64,0.00,,,0.00,VWS V14.01,2014-01-31 15:50:00,
2014-01-31 07:55:00,21.2,12.0,29.95,ENE,74,0.0,0.0,67,0.00,,,0.00,VWS V14.01,2014-01-31 15:55:00,
2014-01-31 08:00:00,21.4,11.5,29.95,ENE,74,0.0,0.0,65,0.00,,,0.00,VWS V14.01,2014-01-31 16:00:00,
2014-01-31 08:05:00,21.6,11.3,29.95,ENE,74,0.0,0.0,64,0.00,,,0.00,VWS V14.01,2014-01-31 16:05:00,
2014-01-31 08:10:00,21.7,11.1,29.98,ENE,74,0.0,0.0,63,0.00,,,0.00,VWS V14.01,2014-01-31 16:10:00,
2014-01-31 08:15:00,21.9,11.3,29.98,ENE,74,0.0,0.0,63,0.00,,,0.00,VWS V14.01,2014-01-31 16:15:00,
2014-01-31 08:20:00,22.3,11.6,29.98,ESE,121,0.0,0.0,63,0.00,,,0.00,VWS V14.01,2014-01-31 16:20:00,
2014-01-31 08:25:00,22.5,11.1,29.98,ESE,121,0.0,0.0,61,0.00,,,0.00,VWS V14.01,2014-01-31 16:25:00,
2014-01-31 08:30:00,22.6,10.9,29.98,ESE,121,0.0,0.0,60,0.00,,,0.00,VWS V14.01,2014-01-31 16:30:00,
2014-01-31 08:35:00,23.0,10.4,29.98,ESE,121,0.0,0.0,58,0.00,,,0.00,VWS V14.01,2014-01-31 16:35:00,
2014-01-31 08:40:00,23.4,9.6,29.98,ENE,63,0.0,0.0,55,0.00,,,0.00,VWS V14.01,2014-01-31 16:40:00,
2014-01-31 08:45:00,23.5,9.4,29.98,ENE,63,0.0,0.0,54,0.00,,,0.00,VWS V14.01,2014-01-31 16:45:00,
2014-01-31 08:50:00,23.5,8.9,29.98,ENE,63,0.0,0.0,53,0.00,,,0.00,VWS V14.01,2014-01-31 16:50:00,
2014-01-31 08:55:00,23.7,9.5,29.98,ENE,63,0.0,0.0,54,0.00,,,0.00,VWS V14.01,2014-01-31 16:55:00,
2014-01-31 09:00:00,23.9,9.3,29.98,ENE,63,0.0,0.0,53,0.00,,,0.00,VWS V14.01,2014-01-31 17:00:00,
2014-01-31 09:05:00,23.9,9.3,29.98,ENE,63,0.0,0.0,53,0.00,,,0.00,VWS V14.01,2014-01-31 17:05:00,
2014-01-31 09:10:00,24.1,9.4,29.98,ENE,64,0.0,0.0,53,0.00,,,0.00,VWS V14.01,2014-01-31 17:10:00,
2014-01-31 09:15:00,24.8,10.1,29.98,ENE,64,0.0,0.0,53,0.00,,,0.00,VWS V14.01,2014-01-31 17:15:00,
2014-01-31 09:20:00,25.3,9.8,29.98,ENE,67,0.0,0.0,51,0.00,,,0.00,VWS V14.01,2014-01-31 17:20:00,
2014-01-31 09:25:00,25.9,8.9,30.01,ENE,67,0.0,0.0,48,0.00,,,0.00,VWS V14.01,2014-01-31 17:25:00,
2014-01-31 09:30:00,26.2,9.2,30.01,East,99,0.0,2.7,48,0.00,,,0.00,VWS V14.01,2014-01-31 17:30:00,
2014-01-31 09:35:00,26.6,9.6,30.01,East,99,0.0,0.0,48,0.00,,,0.00,VWS V14.01,2014-01-31 17:35:00,
2014-01-31 09:40:00,27.0,9.4,29.98,East,99,0.0,0.0,47,0.00,,,0.00,VWS V14.01,2014-01-31 17:40:00,
2014-01-31 09:45:00,27.0,8.9,29.98,East,99,2.2,2.7,46,0.00,,,0.00,VWS V14.01,2014-01-31 17:45:00,
2014-01-31 09:50:00,27.3,9.3,29.98,East,99,0.0,0.0,46,0.00,,,0.00,VWS V14.01,2014-01-31 17:50:00,
2014-01-31 09:55:00,27.3,9.3,29.98,East,99,0.0,0.0,46,0.00,,,0.00,VWS V14.01,2014-01-31 17:55:00,
2014-01-31 10:00:00,27.7,9.6,29.98,East,99,0.0,0.0,46,0.00,,,0.00,VWS V14.01,2014-01-31 18:00:00,
2014-01-31 10:05:00,27.9,9.8,29.98,East,99,0.0,0.0,46,0.00,,,0.00,VWS V14.01,2014-01-31 18:05:00,
2014-01-31 10:10:00,27.9,9.3,30.01,East,99,0.0,0.0,45,0.00,,,0.00,VWS V14.01,2014-01-31 18:10:00,
2014-01-31 10:15:00,27.9,9.3,30.01,East,101,0.0,2.7,45,0.00,,,0.00,VWS V14.01,2014-01-31 18:15:00,
2014-01-31 10:20:00,28.0,9.4,30.01,East,101,0.0,0.0,45,0.00,,,0.00,VWS V14.01,2014-01-31 18:20:00,
2014-01-31 10:24:00,28.2,9.1,29.98,East,101,0.0,0.0,44,0.00,,,0.00,VWS V14.01,2014-01-31 18:24:00,
2014-01-31 10:29:00,28.4,9.3,29.98,East,101,0.0,0.0,44,0.00,,,0.00,VWS V14.01,2014-01-31 18:29:00,
2014-01-31 10:35:00,28.6,8.9,29.98,East,101,0.0,0.0,43,0.00,,,0.00,VWS V14.01,2014-01-31 18:35:00,
2014-01-31 10:39:00,28.6,8.9,30.01,East,101,0.0,0.0,43,0.00,,,0.00,VWS V14.01,2014-01-31 18:39:00,
2014-01-31 10:44:00,28.9,9.3,30.01,East,101,0.0,0.0,43,0.00,,,0.00,VWS V14.01,2014-01-31 18:44:00,
2014-01-31 10:49:00,28.9,9.3,30.01,East,101,0.0,0.0,43,0.00,,,0.00,VWS V14.01,2014-01-31 18:49:00,
2014-01-31 10:54:00,29.3,9.6,30.01,East,101,2.2,2.7,43,0.00,,,0.00,VWS V14.01,2014-01-31 18:54:00,
2014-01-31 10:59:00,29.1,9.4,30.01,East,101,0.0,0.0,43,0.00,,BKN095,0.00,VWS V14.01,2014-01-31 18:59:00,
2014-01-31 11:04:00,29.3,9.6,30.01,East,101,0.0,0.0,43,0.00,,BKN095,0.00,VWS V14.01,2014-01-31 19:04:00,
2014-01-31 11:09:00,29.5,10.3,29.98,East,101,0.0,0.0,44,0.00,,BKN095,0.00,VWS V14.01,2014-01-31 19:09:00,
2014-01-31 11:14:00,29.8,10.1,29.98,East,101,0.0,0.0,43,0.00,,BKN095,0.00,VWS V14.01,2014-01-31 19:14:00,
2014-01-31 11:19:00,30.9,10.5,29.98,East,101,0.0,0.0,42,0.00,,BKN095,0.00,VWS V14.01,2014-01-31 19:19:00,
2014-01-31 11:24:00,31.5,11.6,29.98,East,101,0.0,0.0,43,0.00,,BKN095,0.00,VWS V14.01,2014-01-31 19:24:00,
2014-01-31 11:29:00,31.3,10.9,29.98,East,101,0.0,0.0,42,0.00,,BKN095,0.00,VWS V14.01,2014-01-31 19:29:00,
2014-01-31 11:34:00,31.3,10.9,29.98,East,101,0.0,0.0,42,0.00,,BKN095,0.00,VWS V14.01,2014-01-31 19:34:00,
2014-01-31 11:39:00,31.8,11.4,29.98,East,101,2.7,2.7,42,0.00,,BKN095,0.00,VWS V14.01,2014-01-31 19:39:00,
2014-01-31 11:44:00,32.4,11.9,29.98,East,101,0.0,0.0,42,0.00,,BKN095,0.00,VWS V14.01,2014-01-31 19:44:00,
2014-01-31 11:49:00,32.7,12.2,29.98,East,101,0.0,0.0,42,0.00,,BKN095,0.00,VWS V14.01,2014-01-31 19:49:00,
2014-01-31 11:54:00,32.9,11.8,29.98,East,101,0.0,0.0,41,0.00,,BKN095,0.00,VWS V14.01,2014-01-31 19:54:00,
2014-01-31 11:59:00,33.1,12.0,29.98,East,101,0.0,0.0,41,0.00,,BKN090,0.00,VWS V14.01,2014-01-31 19:59:00,
2014-01-31 12:04:00,32.5,11.5,29.98,East,101,0.0,0.0,41,0.00,,BKN090,0.00,VWS V14.01,2014-01-31 20:04:00,
2014-01-31 12:09:00,32.5,11.5,29.98,East,101,0.0,0.0,41,0.00,,BKN090,0.00,VWS V14.01,2014-01-31 20:09:00,
2014-01-31 12:14:00,32.7,11.6,29.98,East,101,0.0,0.0,41,0.00,,BKN090,0.00,VWS V14.01,2014-01-31 20:14:00,
2014-01-31 12:19:00,32.9,11.8,29.98,East,101,0.0,0.0,41,0.00,,BKN090,0.00,VWS V14.01,2014-01-31 20:19:00,
2014-01-31 12:24:00,33.3,12.1,29.98,East,101,2.7,2.7,41,0.00,,BKN090,0.00,VWS V14.01,2014-01-31 20:24:00,
2014-01-31 12:29:00,33.6,12.4,29.98,West,268,2.7,3.6,41,0.00,,BKN090,0.00,VWS V14.01,2014-01-31 20:29:00,
2014-01-31 12:34:00,33.8,12.6,29.98,NW,313,2.7,2.7,41,0.00,,BKN090,0.00,VWS V14.01,2014-01-31 20:34:00,
2014-01-31 12:39:00,34.0,12.2,29.98,NNE,24,2.2,2.2,40,0.00,,BKN090,0.00,VWS V14.01,2014-01-31 20:39:00,
2014-01-31 12:44:00,33.8,12.6,29.98,NNW,339,0.0,0.0,41,0.00,,BKN090,0.00,VWS V14.01,2014-01-31 20:44:00,
2014-01-31 12:49:00,34.0,12.2,29.98,NW,324,0.0,2.2,40,0.00,,BKN090,0.00,VWS V14.01,2014-01-31 20:49:00,
2014-01-31 12:54:00,33.8,12.1,29.98,NW,324,2.7,2.7,40,0.00,,BKN090,0.00,VWS V14.01,2014-01-31 20:54:00,
2014-01-31 12:59:00,33.8,12.1,29.98,North,357,2.2,2.7,40,0.00,,BKN090,0.00,VWS V14.01,2014-01-31 20:59:00,
2014-01-31 13:04:00,33.6,11.9,29.98,NE,41,0.0,0.0,40,0.00,,SCT100,0.00,VWS V14.01,2014-01-31 21:04:00,
2014-01-31 13:09:00,33.6,12.4,29.98,WNW,290,0.0,0.0,41,0.00,,SCT100,0.00,VWS V14.01,2014-01-31 21:09:00,
2014-01-31 13:14:00,33.8,12.1,29.98,NNW,338,0.0,3.1,40,0.00,,SCT100,0.00,VWS V14.01,2014-01-31 21:14:00,
2014-01-31 13:19:00,33.8,12.1,29.98,NNW,337,0.0,0.0,40,0.00,,SCT100,0.00,VWS V14.01,2014-01-31 21:19:00,
2014-01-31 13:24:00,34.3,12.5,29.98,WNW,292,2.2,2.2,40,0.00,,SCT100,0.00,VWS V14.01,2014-01-31 21:24:00,
2014-01-31 13:29:00,34.5,12.7,29.98,North,1,2.2,2.2,40,0.04,,SCT100,0.04,VWS V14.01,2014-01-31 21:29:00,
2014-01-31 13:34:00,34.7,12.9,29.98,NW,322,0.0,3.1,40,0.04,,SCT100,0.04,VWS V14.01,2014-01-31 21:34:00,
2014-01-31 13:39:00,34.0,12.2,29.95,West,273,2.7,3.1,40,0.04,,SCT100,0.04,VWS V14.01,2014-01-31 21:39:00,
2014-01-31 13:44:00,34.0,12.2,29.95,West,278,0.0,0.0,40,0.04,,SCT100,0.04,VWS V14.01,2014-01-31 21:44:00,
2014-01-31 13:49:00,35.1,13.2,29.95,West,278,0.0,0.0,40,0.04,,SCT100,0.04,VWS V14.01,2014-01-31 21:49:00,
2014-01-31 13:54:00,36.0,11.6,29.95,East,91,0.0,4.0,36,0.04,,SCT100,0.04,VWS V14.01,2014-01-31 21:54:00,
2014-01-31 13:59:00,36.1,11.8,29.95,NNE,33,3.6,4.0,36,0.04,,BKN090,0.04,VWS V14.01,2014-01-31 21:59:00,
2014-01-31 14:04:00,36.0,12.2,29.95,NE,43,3.1,3.1,37,0.04,,BKN090,0.04,VWS V14.01,2014-01-31 22:04:00,
2014-01-31 14:09:00,35.4,12.4,29.95,NNE,26,3.1,4.9,38,0.04,,BKN090,0.04,VWS V14.01,2014-01-31 22:09:00,
2014-01-31 14:14:00,34.9,11.9,29.95,NE,38,3.6,3.6,38,0.04,,BKN090,0.04,VWS V14.01,2014-01-31 22:14:00,
2014-01-31 14:19:00,34.5,12.7,29.95,ENE,63,2.7,3.6,40,0.04,,BKN090,0.04,VWS V14.01,2014-01-31 22:19:00,
2014-01-31 14:24:00,34.0,12.2,29.95,NE,41,0.0,3.1,40,0.04,,BKN090,0.04,VWS V14.01,2014-01-31 22:24:00,
2014-01-31 14:29:00,33.6,11.9,29.95,NE,44,2.7,2.7,40,0.00,,BKN090,0.04,VWS V14.01,2014-01-31 22:29:00,
2014-01-31 14:34:00,33.6,12.4,29.95,NNE,33,0.0,3.1,41,0.00,,BKN090,0.04,VWS V14.01,2014-01-31 22:34:00,
2014-01-31 14:39:00,33.6,12.4,29.98,ENE,64,3.1,3.1,41,0.00,,BKN090,0.04,VWS V14.01,2014-01-31 22:39:00,
2014-01-31 14:44:00,33.4,12.3,29.98,ENE,64,0.0,0.0,41,0.00,,BKN090,0.04,VWS V14.01,2014-01-31 22:44:00,
2014-01-31 14:49:00,33.3,12.1,29.98,ENE,64,0.0,0.0,41,0.00,,BKN090,0.04,VWS V14.01,2014-01-31 22:49:00,
2014-01-31 14:54:00,33.3,12.1,29.98,ENE,64,0.0,0.0,41,0.00,,BKN090,0.04,VWS V14.01,2014-01-31 22:54:00,
2014-01-31 14:59:00,33.4,12.3,29.98,ENE,64,0.0,0.0,41,0.00,,SCT090,0.04,VWS V14.01,2014-01-31 22:59:00,
2014-01-31 15:04:00,33.6,12.4,29.98,ENE,64,0.0,0.0,41,0.00,,SCT090,0.04,VWS V14.01,2014-01-31 23:04:00,
2014-01-31 15:09:00,33.4,12.3,29.98,ENE,64,0.0,0.0,41,0.04,,SCT090,0.08,VWS V14.01,2014-01-31 23:09:00,
2014-01-31 15:14:00,33.3,12.1,29.98,ENE,64,0.0,0.0,41,0.04,,SCT090,0.08,VWS V14.01,2014-01-31 23:14:00,
2014-01-31 15:19:00,33.1,12.0,29.98,ENE,64,0.0,0.0,41,0.04,,SCT090,0.08,VWS V14.01,2014-01-31 23:19:00,
2014-01-31 15:24:00,32.9,11.8,29.98,ENE,64,0.0,0.0,41,0.04,,SCT090,0.08,VWS V14.01,2014-01-31 23:24:00,
2014-01-31 15:29:00,32.5,12.0,29.98,ENE,64,0.0,0.0,42,0.04,,SCT090,0.08,VWS V14.01,2014-01-31 23:29:00,
2014-01-31 15:34:00,32.2,11.7,29.98,ENE,64,0.0,0.0,42,0.04,,SCT090,0.08,VWS V14.01,2014-01-31 23:34:00,
2014-01-31 15:39:00,31.8,11.4,29.98,ENE,64,0.0,0.0,42,0.04,,SCT090,0.08,VWS V14.01,2014-01-31 23:39:00,
2014-01-31 15:44:00,31.1,10.7,29.98,ENE,64,0.0,0.0,42,0.04,,SCT090,0.08,VWS V14.01,2014-01-31 23:44:00,
2014-01-31 15:49:00,30.4,10.1,29.98,ENE,64,0.0,0.0,42,0.04,,SCT090,0.08,VWS V14.01,2014-01-31 23:49:00,
2014-01-31 15:54:00,29.5,9.8,29.98,ENE,64,0.0,0.0,43,0.04,,SCT090,0.08,VWS V14.01,2014-01-31 23:54:00,
2014-01-31 15:59:00,28.8,9.1,29.98,ENE,64,0.0,0.0,43,0.04,,SCT090,0.08,VWS V14.01,2014-01-31 23:59:00,
2014-01-31 16:04:00,28.4,9.3,29.98,ENE,64,0.0,0.0,44,0.04,,SCT090,0.08,VWS V14.01,2014-02-01 00:04:00,
2014-01-31 16:09:00,28.0,8.9,29.98,ENE,64,0.0,2.2,44,0.00,,SCT090,0.08,VWS V14.01,2014-02-01 00:09:00,
2014-01-31 16:14:00,27.9,9.3,29.98,ENE,64,0.0,0.0,45,0.00,,SCT090,0.08,VWS V14.01,2014-02-01 00:14:00,
2014-01-31 16:19:00,27.9,9.3,29.98,ENE,64,0.0,0.0,45,0.00,,SCT090,0.08,VWS V14.01,2014-02-01 00:19:00,
2014-01-31 16:24:00,27.5,9.4,29.98,ENE,64,0.0,0.0,46,0.00,,SCT090,0.08,VWS V14.01,2014-02-01 00:24:00,
2014-01-31 16:29:00,27.5,9.9,29.98,ENE,64,0.0,0.0,47,0.00,,SCT090,0.08,VWS V14.01,2014-02-01 00:29:00,
2014-01-31 16:34:00,27.3,9.8,29.98,ENE,64,0.0,0.0,47,0.00,,SCT090,0.08,VWS V14.01,2014-02-01 00:34:00,
2014-01-31 16:39:00,27.0,9.4,29.98,ENE,64,0.0,0.0,47,0.00,,SCT090,0.08,VWS V14.01,2014-02-01 00:39:00,
2014-01-31 16:44:00,26.4,9.4,29.98,ENE,64,0.0,0.0,48,0.00,,SCT090,0.08,VWS V14.01,2014-02-01 00:44:00,
2014-01-31 16:49:00,25.9,8.9,29.98,ENE,64,0.0,0.0,48,0.00,,SCT090,0.08,VWS V14.01,2014-02-01 00:49:00,
2014-01-31 16:54:00,25.0,8.1,29.98,ENE,64,0.0,0.0,48,0.00,,SCT090,0.08,VWS V14.01,2014-02-01 00:54:00,
2014-01-31 16:59:00,24.1,7.2,29.98,ENE,64,0.0,0.0,48,0.00,,SCT090,0.08,VWS V14.01,2014-02-01 00:59:00,
2014-01-31 17:04:00,23.5,6.8,29.98,ENE,64,0.0,0.0,48,0.00,,SCT090,0.08,VWS V14.01,2014-02-01 01:04:00,
2014-01-31 17:09:00,23.0,6.7,30.01,ENE,64,0.0,0.0,49,0.00,,SCT090,0.08,VWS V14.01,2014-02-01 01:09:00,
2014-01-31 17:14:00,22.6,6.4,30.01,ENE,64,0.0,0.0,49,0.00,,SCT090,0.08,VWS V14.01,2014-02-01 01:14:00,
2014-01-31 17:19:00,22.5,6.2,30.01,ENE,64,0.0,0.0,49,0.00,,SCT090,0.08,VWS V14.01,2014-02-01 01:19:00,
2014-01-31 17:24:00,22.6,6.8,30.01,ENE,64,0.0,0.0,50,0.00,,SCT090,0.08,VWS V14.01,2014-02-01 01:24:00,
2014-01-31 17:29:00,22.8,7.8,30.01,ENE,64,0.0,0.0,52,0.00,,SCT090,0.08,VWS V14.01,2014-02-01 01:29:00,
2014-01-31 17:34:00,22.5,7.5,30.01,ENE,64,0.0,0.0,52,0.00,,SCT090,0.08,VWS V14.01,2014-02-01 01:34:00,
2014-01-31 17:39:00,22.3,7.3,30.01,ENE,64,0.0,0.0,52,0.00,,SCT090,0.08,VWS V14.01,2014-02-01 01:39:00,
2014-01-31 17:44:00,21.7,6.8,30.01,ENE,64,0.0,0.0,52,0.00,,SCT090,0.08,VWS V14.01,2014-02-01 01:44:00,
2014-01-31 17:49:00,21.2,6.8,30.01,ENE,64,0.0,0.0,53,0.00,,SCT090,0.08,VWS V14.01,2014-02-01 01:49:00,
2014-01-31 17:54:00,20.8,6.4,30.01,ENE,64,0.0,0.0,53,0.00,,SCT090,0.08,VWS V14.01,2014-02-01 01:54:00,
2014-01-31 17:59:00,20.8,6.4,30.01,ENE,64,0.0,0.0,53,0.00,,SCT090,0.08,VWS V14.01,2014-02-01 01:59:00,
2014-01-31 18:04:00,21.2,7.2,30.01,ENE,64,0.0,0.0,54,0.00,,SCT090,0.08,VWS V14.01,2014-02-01 02:04:00,
2014-01-31 18:09:00,21.7,7.7,30.01,ENE,64,0.0,0.0,54,0.00,,SCT090,0.08,VWS V14.01,2014-02-01 02:09:00,
2014-01-31 18:14:00,22.5,8.8,30.01,ENE,64,0.0,0.0,55,0.00,,SCT090,0.08,VWS V14.01,2014-02-01 02:14:00,
2014-01-31 18:19:00,22.8,9.1,30.01,ENE,64,0.0,0.0,55,0.00,,SCT090,0.08,VWS V14.01,2014-02-01 02:19:00,
2014-01-31 18:24:00,22.3,8.6,30.01,ENE,64,0.0,0.0,55,0.00,,SCT090,0.08,VWS V14.01,2014-02-01 02:24:00,
2014-01-31 18:29:00,21.7,8.5,30.01,ENE,64,0.0,0.0,56,0.00,,SCT090,0.08,VWS V14.01,2014-02-01 02:29:00,
2014-01-31 18:34:00,21.6,8.3,30.01,ENE,64,0.0,0.0,56,0.00,,SCT090,0.08,VWS V14.01,2014-02-01 02:34:00,
2014-01-31 18:39:00,20.8,7.6,29.98,ENE,64,0.0,0.0,56,0.00,,SCT090,0.08,VWS V14.01,2014-02-01 02:39:00,
2014-01-31 18:44:00,20.3,7.5,29.98,ENE,64,0.0,0.0,57,0.00,,SCT090,0.08,VWS V14.01,2014-02-01 02:44:00,
2014-01-31 18:49:00,20.3,7.9,29.98,ENE,64,0.0,0.0,58,0.00,,SCT090,0.08,VWS V14.01,2014-02-01 02:49:00,
2014-01-31 18:54:00,20.8,8.8,30.01,ENE,64,0.0,0.0,59,0.00,,SCT090,0.08,VWS V14.01,2014-02-01 02:54:00,
2014-01-31 18:59:00,21.2,9.1,30.01,ENE,64,0.0,0.0,59,0.00,,SCT090,0.08,VWS V14.01,2014-02-01 02:59:00,
2014-01-31 19:04:00,21.9,9.8,30.01,ENE,64,0.0,0.0,59,0.00,,SCT090,0.08,VWS V14.01,2014-02-01 03:04:00,
2014-01-31 19:09:00,22.1,10.0,30.01,ENE,64,0.0,0.0,59,0.00,,SCT090,0.08,VWS V14.01,2014-02-01 03:09:00,
2014-01-31 19:14:00,22.3,10.5,30.01,ENE,64,0.0,0.0,60,0.00,,SCT090,0.08,VWS V14.01,2014-02-01 03:14:00,
2014-01-31 19:19:00,22.5,10.7,30.01,ENE,64,0.0,0.0,60,0.00,,SCT090,0.08,VWS V14.01,2014-02-01 03:19:00,
2014-01-31 19:24:00,22.3,10.5,30.01,ENE,64,0.0,0.0,60,0.00,,SCT090,0.08,VWS V14.01,2014-02-01 03:24:00,
2014-01-31 19:29:00,22.3,10.9,30.01,ENE,64,0.0,0.0,61,0.00,,SCT090,0.08,VWS V14.01,2014-02-01 03:29:00,
2014-01-31 19:34:00,22.1,11.1,30.01,ENE,64,0.0,0.0,62,0.00,,SCT090,0.08,VWS V14.01,2014-02-01 03:34:00,
2014-01-31 19:39:00,21.9,10.9,30.01,ENE,64,0.0,0.0,62,0.00,,SCT090,0.08,VWS V14.01,2014-02-01 03:39:00,
2014-01-31 19:44:00,21.9,10.9,30.01,ENE,64,0.0,0.0,62,0.00,,SCT090,0.08,VWS V14.01,2014-02-01 03:44:00,
2014-01-31 19:49:00,21.9,10.9,30.01,ENE,64,0.0,0.0,62,0.00,,SCT090,0.08,VWS V14.01,2014-02-01 03:49:00,
2014-01-31 19:54:00,21.9,11.3,30.03,ENE,64,0.0,0.0,63,0.00,,SCT090,0.08,VWS V14.01,2014-02-01 03:54:00,
2014-01-31 19:59:00,22.1,11.4,30.03,ENE,64,0.0,0.0,63,0.00,,SCT090,0.08,VWS V14.01,2014-02-01 03:59:00,
2014-01-31 20:04:00,21.7,10.7,30.03,ENE,64,0.0,0.0,62,0.00,,SCT090,0.08,VWS V14.01,2014-02-01 04:04:00,
2014-01-31 20:09:00,21.2,10.2,30.03,ENE,64,0.0,0.0,62,0.00,,SCT090,0.08,VWS V14.01,2014-02-01 04:09:00,
2014-01-31 20:14:00,20.7,9.7,30.03,ENE,64,0.0,0.0,62,0.00,,SCT090,0.08,VWS V14.01,2014-02-01 04:14:00,
2014-01-31 20:19:00,20.3,9.4,30.03,ENE,64,0.0,0.0,62,0.00,,SCT090,0.08,VWS V14.01,2014-02-01 04:19:00,
2014-01-31 20:24:00,20.1,9.6,30.03,ENE,64,0.0,0.0,63,0.00,,SCT090,0.08,VWS V14.01,2014-02-01 04:24:00,
2014-01-31 20:29:00,19.8,8.9,30.03,ENE,64,0.0,0.0,62,0.00,,SCT090,0.08,VWS V14.01,2014-02-01 04:29:00,
2014-01-31 20:34:00,19.8,9.6,30.03,ENE,64,0.0,0.0,64,0.00,,SCT090,0.08,VWS V14.01,2014-02-01 04:34:00,
2014-01-31 20:39:00,20.1,10.3,30.03,ENE,64,0.0,0.0,65,0.00,,SCT090,0.08,VWS V14.01,2014-02-01 04:39:00,
2014-01-31 20:44:00,19.9,9.7,30.03,ENE,64,0.0,0.0,64,0.00,,SCT090,0.08,VWS V14.01,2014-02-01 04:44:00,
2014-01-31 20:49:00,19.6,9.4,30.03,ENE,64,0.0,0.0,64,0.00,,BKN020,0.08,VWS V14.01,2014-02-01 04:49:00,
2014-01-31 20:54:00,19.0,8.9,30.03,ENE,64,0.0,0.0,64,0.00,,BKN020,0.08,VWS V14.01,2014-02-01 04:54:00,
2014-01-31 20:59:00,18.7,8.5,30.03,ENE,64,0.0,0.0,64,0.00,,BKN022,0.08,VWS V14.01,2014-02-01 04:59:00,
2014-01-31 21:01:00,18.5,8.4,30.03,ENE,64,0.0,0.0,64,0.00,,BKN022,0.08,VWS V14.01,2014-02-01 05:01:00,
2014-01-31 21:06:00,18.0,7.8,30.03,ENE,64,0.0,0.0,64,0.00,,BKN022,0.08,VWS V14.01,2014-02-01 05:06:00,
2014-01-31 21:11:00,17.1,7.0,30.03,ENE,64,0.0,0.0,64,0.00,,BKN022,0.08,VWS V14.01,2014-02-01 05:11:00,
2014-01-31 21:16:00,16.9,7.2,30.03,ENE,64,0.0,0.0,65,0.00,,BKN022,0.08,VWS V14.01,2014-02-01 05:16:00,
2014-01-31 21:21:00,16.0,6.0,30.03,ENE,64,0.0,0.0,64,0.00,,FEW022,0.08,VWS V14.01,2014-02-01 05:21:00,
2014-01-31 21:26:00,15.4,5.4,30.03,ENE,64,0.0,0.0,64,0.00,,FEW022,0.08,VWS V14.01,2014-02-01 05:26:00,
2014-01-31 21:30:00,15.3,5.6,30.03,ENE,64,0.0,0.0,65,0.00,,FEW022,0.08,VWS V14.01,2014-02-01 05:30:00,
2014-01-31 21:35:00,14.9,5.3,30.03,ENE,64,0.0,0.0,65,0.00,,FEW022,0.08,VWS V14.01,2014-02-01 05:35:00,
2014-01-31 21:40:00,14.9,5.6,30.03,ENE,64,0.0,0.0,66,0.00,,FEW022,0.08,VWS V14.01,2014-02-01 05:40:00,
2014-01-31 21:45:00,14.5,4.9,30.03,ENE,64,0.0,0.0,65,0.00,,FEW022,0.08,VWS V14.01,2014-02-01 05:45:00,
2014-01-31 21:50:00,16.2,8.1,30.03,ENE,64,0.0,0.0,70,0.00,,FEW022,0.08,VWS V14.01,2014-02-01 05:50:00,
2014-01-31 21:55:00,15.6,7.3,30.03,ENE,64,0.0,0.0,69,0.00,,FEW022,0.08,VWS V14.01,2014-02-01 05:55:00,
2014-01-31 22:00:00,14.9,5.9,30.03,ENE,64,0.0,0.0,67,0.00,,FEW022,0.08,VWS V14.01,2014-02-01 06:00:00,
2014-01-31 22:05:00,14.0,5.1,30.03,ENE,64,0.0,0.0,67,0.00,,FEW022,0.08,VWS V14.01,2014-02-01 06:05:00,
2014-01-31 22:10:00,13.8,5.2,30.06,ENE,64,0.0,0.0,68,0.00,,FEW022,0.08,VWS V14.01,2014-02-01 06:10:00,
2014-01-31 22:14:00,14.0,5.7,30.06,ENE,64,0.0,0.0,69,0.00,,FEW022,0.08,VWS V14.01,2014-02-01 06:14:00,
2014-01-31 22:19:00,13.8,5.6,30.06,ENE,64,0.0,0.0,69,0.00,,FEW022,0.08,VWS V14.01,2014-02-01 06:19:00,
2014-01-31 22:24:00,12.9,4.7,30.06,ENE,64,0.0,0.0,69,0.00,,FEW022,0.08,VWS V14.01,2014-02-01 06:24:00,
2014-01-31 22:29:00,12.6,4.3,30.06,ENE,64,0.0,2.7,69,0.00,,FEW022,0.08,VWS V14.01,2014-02-01 06:29:00,
2014-01-31 22:34:00,12.2,4.0,30.06,ENE,64,0.0,0.0,69,0.00,,FEW022,0.08,VWS V14.01,2014-02-01 06:34:00,
2014-01-31 22:39:00,12.6,4.3,30.06,ENE,64,2.2,2.2,69,0.00,,FEW022,0.08,VWS V14.01,2014-02-01 06:39:00,
2014-01-31 22:44:00,13.5,5.2,30.06,ENE,64,0.0,0.0,69,0.00,,FEW022,0.08,VWS V14.01,2014-02-01 06:44:00,
2014-01-31 22:49:00,13.8,5.6,30.06,ENE,64,0.0,0.0,69,0.00,,FEW022,0.00,VWS V14.01,2014-02-01 06:49:00,
2014-01-31 22:54:00,13.6,6.0,30.06,ENE,64,0.0,0.0,71,0.00,,FEW022,0.00,VWS V14.01,2014-02-01 06:54:00,
2014-01-31 22:59:00,13.3,5.7,30.06,ENE,64,0.0,0.0,71,0.00,,CLR,0.00,VWS V14.01,2014-02-01 06:59:00,
2014-01-31 23:04:00,12.6,5.0,30.06,ENE,64,0.0,0.0,71,0.00,,CLR,0.00,VWS V14.01,2014-02-01 07:04:00,
2014-01-31 23:09:00,12.6,5.0,30.06,ENE,64,0.0,0.0,71,0.00,,CLR,0.00,VWS V14.01,2014-02-01 07:09:00,
2014-01-31 23:14:00,13.8,6.2,30.06,ENE,64,0.0,0.0,71,0.00,,CLR,0.00,VWS V14.01,2014-02-01 07:14:00,
2014-01-31 23:19:00,13.8,5.9,30.06,ENE,64,0.0,0.0,70,0.00,,CLR,0.00,VWS V14.01,2014-02-01 07:19:00,
2014-01-31 23:24:00,13.6,5.7,30.06,ENE,64,0.0,0.0,70,0.00,,CLR,0.00,VWS V14.01,2014-02-01 07:24:00,
2014-01-31 23:29:00,13.3,5.3,30.06,ENE,64,0.0,0.0,70,0.00,,CLR,0.00,VWS V14.01,2014-02-01 07:29:00,
2014-01-31 23:34:00,13.3,5.3,30.06,ENE,64,0.0,0.0,70,0.00,,CLR,0.00,VWS V14.01,2014-02-01 07:34:00,
2014-01-31 23:39:00,13.1,5.2,30.06,ENE,64,0.0,0.0,70,0.00,,CLR,0.00,VWS V14.01,2014-02-01 07:39:00,
2014-01-31 23:44:00,12.7,4.8,30.06,ENE,64,0.0,0.0,70,0.00,,CLR,0.00,VWS V14.01,2014-02-01 07:44:00,
2014-01-31 23:49:00,12.0,4.1,30.06,ENE,64,0.0,0.0,70,0.00,,CLR,0.00,VWS V14.01,2014-02-01 07:49:00,
2014-01-31 23:54:00,11.7,3.8,30.09,ENE,64,0.0,0.0,70,0.00,,CLR,0.00,VWS V14.01,2014-02-01 07:54:00,
2014-01-31 23:59:00,11.8,4.0,30.09,ENE,64,0.0,0.0,70,0.00,,CLR,0.00,VWS V14.01,2014-02-01 07:59:00,